WELCOME TO AIR WEST FLIGHT SUPPORT

Slider

THE RIGHT CHOICE FOR THE BEST SERVICE

OUR GOAL IS TO BE THE MOST ACCOMMODATING FBO IN LETHBRIDGE, AB. WITH EFFICIENT AND PROFFESSIONAL SERVICE

 WE HAVE GOT IT ALL!

  • Great Attitude
  • The Right Equipment
  • Large Facilities
  • Competitive Fuel Prices
  • In-House Aircraft Maintenance
  • In-House Flight Training, Aircraft Rentals
  • Aircraft Sales And Much  More!

Facebook By Weblizar Powered By Weblizar

 


We are located at the Lethbridge County Airport (CYQL) on Ramp 2 at the east end of Taxiway C.   Lethbridge is a key point of entry where you can clear customs using
CANPASS.  The Airport is approximately 5 km south of the City of Lethbridge, which offers convenient access to nearby towns such as Cardston, Crowsnest Pass, Coaldale, Fort MacLeod, Milk River, Pincher Creek and Taber.  Lethbridge and its surrounding area is a great tourist destination

 


Click on image to enlarge

Available data for CYQL from the past 2 hours
LETHBRIDGE VOR, AB
Metar
CYQL 160000Z 03009KT 60SM FEW092 FEW150 FEW300 27/04 A3005 RMK CU1AC1CI1 CU TR CI TR SLP175 DENSITY ALT 5000FT

00:00 UTC

Wind: 30° 9kt

Visibility: 60 SM

Sky: FEW 9200 ft

Temp: 27 deg C / 80.6 deg F

Dewpoint: 4 deg C / 39.2 deg F

Pressure: 30.05 inHg

TAF
TAF CYQL 152338Z 1600/1612 03012KT P6SM FEW090 SCT180 BECMG 1602/1604 12008KT BECMG 1606/1608 22008KT RMK NXT FCST BY 160600Z